OK1FPA-15 Weather Reports


Display with metric or nautical units.
time (UTC)temp
F
wind
direction
speed
MPH
gust
MPH
rain 1hr
in
rain 24hr
in
rain mn
in
humidity
%
barometer
mb
20260902033542 55 0.0 0.0 0.00 0.00 0.00 97 1021.5
20260902032542 55 0.0 0.0 0.00 0.00 0.00 96 1021.6
20260902031542 56 0.0 0.0 0.00 0.00 0.00 95 1021.6
20260902030542 56 0.0 0.0 0.00 0.00 0.00 94 1021.6
20260902025542 57 0.0 0.0 0.00 0.00 0.00 94 1021.7
20260902024542 57 0.0 0.0 0.00 0.00 0.00 94 1021.8
20260902023542 57 0.0 0.0 0.00 0.00 0.00 94 1021.8
20260902022542 57 0.0 0.0 0.00 0.00 0.00 92 1021.8
20260902021542 57 0.0 0.0 0.00 0.00 0.00 92 1021.8
20260902020542 57 0.0 0.0 0.00 0.00 0.00 92 1021.7
20260902015542 57 0.0 0.0 0.00 0.00 0.00 91 1021.7
20260902014542 58 0.0 0.0 0.00 0.00 0.00 90 1021.6
20260902013542 58 0.0 0.0 0.00 0.00 0.00 89 1021.7
20260902012542 58 0.0 0.0 0.00 0.00 0.00 89 1021.7
20260902011542 58 0.0 0.0 0.00 0.00 0.00 89 1021.6
20260902010542 58 0.0 0.0 0.00 0.00 0.00 89 1021.6
20260902005542 58 0.0 0.0 0.00 0.00 0.00 90 1021.6
20260902004542 58 0.0 0.0 0.00 0.00 0.00 89 1021.6
20260902003542 59 0.0 0.0 0.00 0.00 0.00 88 1021.7
20260902002542 59 0.0 0.0 0.00 0.00 0.00 88 1021.6
20260902001542 59 0.0 0.0 0.00 0.00 0.00 88 1021.7
20260902000542 59 0.0 0.0 0.00 0.00 0.00 88 1021.7
20260901235542 59 0.0 0.0 0.00 0.00 0.00 88 1021.7
20260901234542 59 0.0 0.0 0.00 0.00 0.00 88 1021.7
20260901233542 59 0.0 0.0 0.00 0.00 0.00 89 1021.7
20260901232542 59 0.0 0.0 0.00 0.00 0.00 87 1021.6
20260901231542 59 0.0 0.0 0.00 0.00 0.00 88 1021.6
20260901230542 59 0.0 0.0 0.00 0.00 0.00 88 1021.6
20260901225542 59 0.0 0.0 0.00 0.00 0.00 87 1021.5
20260901224542 59 0.0 0.0 0.00 0.00 0.00 87 1021.3
20260901223542 59 0.0 0.0 0.00 0.00 0.00 87 1021.3
20260901222542 59 0.0 0.0 0.00 0.00 0.00 87 1021.3
20260901221546 59 0.0 0.0 0.00 0.00 0.00 86 1021.2
20260901220541 59 0.0 0.0 0.00 0.00 0.00 85 1021.3
20260901215541 59 0.0 0.0 0.00 0.00 0.00 85 1021.2
20260901214541 59 0.0 0.0 0.00 0.00 0.00 84 1021.1
20260901213540 59 0.0 0.0 0.00 0.00 0.00 84 1021.1
20260901212541 59 0.0 0.0 0.00 0.00 0.00 83 1021.1
20260901211541 59 0.0 0.0 0.00 0.00 0.00 82 1021.2
20260901210541 59 0.0 0.0 0.00 0.00 0.00 82 1021.2
20260901205541 60 0.0 0.0 0.00 0.00 0.00 81 1021.3
20260901204541 60 0.0 0.0 0.00 0.00 0.00 81 1021.3
20260901203541 60 0.0 0.0 0.00 0.00 0.00 80 1021.3
20260901202541 60 0.0 0.0 0.00 0.00 0.00 80 1021.2
20260901201541 60 0.0 0.0 0.00 0.00 0.00 79 1021.2
20260901200541 60 0.0 0.0 0.00 0.00 0.00 79 1021.2
20260901195541 60 0.0 0.0 0.00 0.00 0.00 79 1021.1
20260901194541 60 0.0 0.0 0.00 0.00 0.00 80 1021.0
20260901193541 60 0.0 0.0 0.00 0.00 0.00 79 1021.0
20260901192541 60 0.0 0.0 0.00 0.00 0.00 78 1020.9
20260901191541 60 0.0 0.0 0.00 0.00 0.00 77 1020.8
20260901190541 61 0.0 0.0 0.00 0.00 0.00 76 1020.8
20260901185541 61 0.0 0.0 0.00 0.00 0.00 76 1020.8
20260901184541 61 0.0 0.0 0.00 0.00 0.00 75 1020.7
20260901183541 62 0.0 0.0 0.00 0.00 0.00 74 1020.6
20260901182541 62 0.0 0.0 0.00 0.00 0.00 73 1020.5
20260901181541 63 0.0 0.0 0.00 0.00 0.00 71 1020.3
20260901180541 64 0.0 0.0 0.00 0.00 0.00 70 1020.2
20260901175541 64 0.0 0.0 0.00 0.00 0.00 67 1020.0
20260901174541 65 0.0 0.0 0.00 0.00 0.00 66 1020.0
20260901173541 66 0.0 0.0 0.00 0.00 0.00 65 1019.9
20260901172541 66 0.0 0.0 0.00 0.00 0.00 63 1019.8
20260901171541 67 0.0 0.0 0.00 0.00 0.00 61 1019.9
20260901170541 68 0.0 0.0 0.00 0.00 0.00 59 1019.9
20260901165541 69 0.0 0.0 0.00 0.00 0.00 57 1019.9
20260901164541 70 0.0 0.0 0.00 0.00 0.00 54 1019.8
20260901163541 71 0.0 0.0 0.00 0.00 0.00 50 1019.8
20260901162541 71 0.0 0.0 0.00 0.00 0.00 48 1019.9
20260901161541 71 0.0 0.0 0.00 0.00 0.00 51 1019.8
20260901160541 72 0.0 0.0 0.00 0.00 0.00 50 1019.7
20260901155541 72 0.0 0.0 0.00 0.00 0.00 53 1019.6
20260901154541 73 0.0 0.0 0.00 0.00 0.00 53 1019.6
20260901153541 73 0.0 0.0 0.00 0.00 0.00 52 1019.7
20260901152541 73 0.0 0.0 0.00 0.00 0.00 51 1019.7
20260901151541 74 0.0 0.0 0.00 0.00 0.00 45 1019.8
20260901150542 74 0.0 0.0 0.00 0.00 0.00 44 1019.8
20260901145541 75 0.0 0.0 0.00 0.00 0.00 45 1019.8
20260901144541 75 0.0 0.0 0.00 0.00 0.00 45 1019.9
20260901143541 75 0.0 0.0 0.00 0.00 0.00 44 1019.7
20260901142541 75 0.0 0.0 0.00 0.00 0.00 43 1019.9
20260901141541 75 0.0 0.0 0.00 0.00 0.00 44 1019.9
20260901140541 75 0.0 0.0 0.00 0.00 0.00 45 1020.0
20260901135541 75 0.0 0.0 0.00 0.00 0.00 44 1020.0
20260901134541 75 0.0 0.0 0.00 0.00 0.00 44 1020.1
20260901133541 75 0.0 0.0 0.00 0.00 0.00 43 1020.2
20260901132541 75 0.0 0.0 0.00 0.00 0.00 42 1020.3
20260901131541 75 0.0 0.0 0.00 0.00 0.00 45 1020.4
20260901130541 75 0.0 0.0 0.00 0.00 0.00 45 1020.4
20260901125541 74 0.0 0.0 0.00 0.00 0.00 45 1020.5
20260901124541 73 0.0 0.0 0.00 0.00 0.00 43 1020.5
20260901123541 74 0.0 0.0 0.00 0.00 0.00 45 1020.5
20260901122540 74 0.0 0.0 0.00 0.00 0.00 47 1020.7
20260901121541 73 0.0 0.0 0.00 0.00 0.00 47 1020.7
20260901120541 72 0.0 0.0 0.00 0.00 0.00 52 1020.8
20260901115541 72 0.0 0.0 0.00 0.00 0.00 47 1020.8
20260901114541 72 0.0 0.0 0.00 0.00 0.00 49 1020.8
20260901113541 71 0.0 0.0 0.00 0.00 0.00 52 1020.8
20260901112541 72 0.0 0.0 0.00 0.00 0.00 47 1020.9
20260901111541 72 0.0 0.0 0.00 0.00 0.00 49 1020.8
20260901110541 73 0.0 0.0 0.00 0.00 0.00 49 1020.8
20260901105541 72 0.0 0.0 0.00 0.00 0.00 51 1020.8
20260901104541 71 0.0 0.0 0.00 0.00 0.00 53 1020.8
20260901103541 70 0.0 0.0 0.00 0.00 0.00 54 1020.9
20260901102541 71 0.0 0.0 0.00 0.00 0.00 54 1020.9
20260901101544 70 0.0 0.0 0.00 0.00 0.00 55 1020.8
20260901100539 70 0.0 0.0 0.00 0.00 0.00 55 1020.8
20260901095539 70 0.0 0.0 0.00 0.00 0.00 54 1020.9
20260901094540 70 0.0 0.0 0.00 0.00 0.00 56 1020.8
20260901093544 69 0.0 0.0 0.00 0.00 0.00 53 1020.8
20260901092540 69 0.0 0.0 0.00 0.00 0.00 55 1020.8
20260901091539 69 0.0 0.0 0.00 0.00 0.00 58 1020.8
20260901090539 68 0.0 0.0 0.00 0.00 0.00 58 1020.6
20260901085539 69 0.0 0.0 0.00 0.00 0.00 58 1020.6
20260901084539 68 0.0 0.0 0.00 0.00 0.00 61 1020.5
20260901083539 68 0.0 0.0 0.00 0.00 0.00 58 1020.5
20260901082539 68 0.0 0.0 0.00 0.00 0.00 60 1020.3
20260901081539 67 0.0 0.0 0.00 0.00 0.00 64 1020.3
20260901080540 66 0.0 0.0 0.00 0.00 0.00 61 1020.3
20260901075539 66 0.0 0.0 0.00 0.00 0.00 65 1020.3
20260901074539 66 0.0 0.0 0.00 0.00 0.00 67 1020.2
20260901073539 66 0.0 0.0 0.00 0.00 0.00 65 1020.0
20260901072539 64 0.0 0.0 0.00 0.00 0.00 69 1020.0
20260901071540 64 0.0 0.0 0.00 0.00 0.00 68 1020.0
20260901070540 63 0.0 0.0 0.00 0.00 0.00 71 1020.0
20260901065539 63 0.0 0.0 0.00 0.00 0.00 71 1020.0
20260901064540 63 0.0 0.0 0.00 0.00 0.00 71 1019.9
20260901063539 63 0.0 0.0 0.00 0.00 0.00 73 1019.9
20260901062539 62 0.0 0.0 0.00 0.00 0.00 75 1019.8
20260901061539 61 0.0 0.0 0.00 0.00 0.00 79 1019.8
20260901060539 60 0.0 0.0 0.00 0.00 0.00 82 1019.9
20260901055539 59 0.0 0.0 0.00 0.00 0.00 91 1019.6
20260901054539 58 0.0 0.0 0.00 0.00 0.00 93 1019.7
20260901053540 58 0.0 0.0 0.00 0.00 0.00 92 1019.7
20260901052539 57 0.0 0.0 0.00 0.00 0.00 92 1019.7
20260901051540 57 0.0 0.0 0.00 0.00 0.00 93 1019.7
20260901050539 56 0.0 0.0 0.00 0.00 0.00 93 1019.6
20260901045539 56 0.0 0.0 0.00 0.00 0.00 94 1019.5
20260901044539 55 0.0 0.0 0.00 0.00 0.00 95 1019.4
20260901043539 55 0.0 0.0 0.00 0.00 0.00 95 1019.4
20260901042540 55 0.0 0.0 0.00 0.00 0.00 94 1019.3
20260901041540 55 0.0 0.0 0.00 0.00 0.00 93 1019.2
20260901040539 55 0.0 0.0 0.00 0.00 0.00 93 1019.1
20260901035539 55 0.0 0.0 0.00 0.00 0.00 92 1019.2
20260901034539 55 0.0 0.0 0.00 0.00 0.00 91 1019.1